Time,TemperatureF,DewpointF,PressureIn,WindDirection,WindDirectionDegrees,WindSpeedMPH,WindSpeedGustMPH,Humidity,HourlyPrecipIn,Conditions,Clouds,dailyrainin,SoftwareType,DateUTC
2013-05-06 00:01:00,54.1,51.5,30.00,North,0,0.0,0.0,91,0.00,,,0.00,WUHU21623XXSP,2013-05-06 05:01:00,
2013-05-06 00:06:00,54.1,51.5,30.00,North,0,0.0,0.0,91,0.00,,,0.00,WUHU21623XXSP,2013-05-06 05:06:00,
2013-05-06 00:11:00,54.0,51.4,30.00,North,0,0.0,0.0,91,0.00,,,0.00,WUHU21623XXSP,2013-05-06 05:11:00,
2013-05-06 00:16:00,53.8,51.2,30.00,North,0,0.0,0.0,91,0.00,,,0.00,WUHU21623XXSP,2013-05-06 05:16:00,
2013-05-06 00:21:00,53.8,51.2,30.00,North,0,0.0,0.0,91,0.00,,,0.00,WUHU21623XXSP,2013-05-06 05:21:00,
2013-05-06 00:26:00,53.8,51.2,30.00,North,0,0.0,0.0,91,0.00,,,0.00,WUHU21623XXSP,2013-05-06 05:26:00,
2013-05-06 00:31:00,53.8,51.2,30.00,North,0,0.0,0.0,91,0.00,,,0.00,WUHU21623XXSP,2013-05-06 05:31:00,
2013-05-06 00:36:00,53.8,51.2,30.00,North,0,0.0,0.0,91,0.00,,,0.00,WUHU21623XXSP,2013-05-06 05:36:00,
2013-05-06 00:41:00,53.8,51.2,30.00,North,0,0.0,0.0,91,0.00,,,0.00,WUHU21623XXSP,2013-05-06 05:41:00,
2013-05-06 00:46:00,53.4,50.8,30.00,North,0,0.0,0.0,91,0.00,,,0.00,WUHU21623XXSP,2013-05-06 05:46:00,
2013-05-06 00:51:00,53.4,50.8,30.00,North,0,0.0,0.0,91,0.00,,,0.00,WUHU21623XXSP,2013-05-06 05:51:00,
2013-05-06 00:56:00,53.4,50.8,30.00,North,0,0.0,0.0,91,0.00,,,0.00,WUHU21623XXSP,2013-05-06 05:56:00,
2013-05-06 01:01:00,53.4,50.8,30.00,North,0,0.0,0.0,91,0.00,,,0.00,WUHU21623XXSP,2013-05-06 06:01:00,
2013-05-06 01:06:00,53.4,50.8,30.00,North,0,0.0,0.0,91,0.00,,,0.00,WUHU21623XXSP,2013-05-06 06:06:00,
2013-05-06 01:11:00,53.2,50.6,30.00,North,0,0.0,0.0,91,0.00,,,0.00,WUHU21623XXSP,2013-05-06 06:11:00,
2013-05-06 01:16:00,53.2,50.6,30.00,North,0,0.0,0.0,91,0.00,,,0.00,WUHU21623XXSP,2013-05-06 06:16:00,
2013-05-06 01:21:00,53.2,50.6,29.99,North,0,0.0,0.0,91,0.00,,,0.00,WUHU21623XXSP,2013-05-06 06:21:00,
2013-05-06 01:26:00,53.2,50.6,29.99,North,0,0.0,0.0,91,0.00,,,0.00,WUHU21623XXSP,2013-05-06 06:26:00,
2013-05-06 01:31:00,53.2,50.6,29.99,North,0,0.0,0.0,91,0.00,,,0.00,WUHU21623XXSP,2013-05-06 06:31:00,
2013-05-06 01:36:00,53.4,50.8,29.99,North,0,0.0,0.0,91,0.00,,,0.00,WUHU21623XXSP,2013-05-06 06:36:00,
2013-05-06 01:41:00,53.4,50.8,29.99,North,0,0.0,0.0,91,0.00,,,0.00,WUHU21623XXSP,2013-05-06 06:41:00,
2013-05-06 01:46:00,53.4,51.1,29.99,North,0,0.0,0.0,92,0.00,,,0.00,WUHU21623XXSP,2013-05-06 06:46:00,
2013-05-06 01:51:00,53.4,51.1,29.98,North,0,0.0,0.0,92,0.00,,,0.00,WUHU21623XXSP,2013-05-06 06:51:00,
2013-05-06 01:56:00,53.4,51.1,29.99,North,0,0.0,0.0,92,0.00,,,0.00,WUHU21623XXSP,2013-05-06 06:56:00,
2013-05-06 02:01:00,53.4,51.3,29.98,North,0,0.0,0.0,92,0.00,,,0.00,WUHU21623XXSP,2013-05-06 07:01:00,
2013-05-06 02:06:00,53.6,51.3,29.98,North,0,0.0,0.0,92,0.00,,,0.00,WUHU21623XXSP,2013-05-06 07:06:00,
2013-05-06 02:11:00,53.4,51.1,29.98,North,0,0.0,0.0,92,0.00,,,0.00,WUHU21623XXSP,2013-05-06 07:11:00,
2013-05-06 02:16:00,53.4,51.1,29.98,North,0,0.0,0.0,92,0.00,,,0.00,WUHU21623XXSP,2013-05-06 07:16:00,
2013-05-06 02:21:00,53.4,51.1,29.99,North,0,0.0,0.0,92,0.00,,,0.00,WUHU21623XXSP,2013-05-06 07:21:00,
2013-05-06 02:26:00,53.4,51.1,29.99,North,0,0.0,0.0,92,0.00,,,0.00,WUHU21623XXSP,2013-05-06 07:26:00,
2013-05-06 02:31:00,53.4,51.1,29.99,North,0,0.0,0.0,92,0.00,,,0.00,WUHU21623XXSP,2013-05-06 07:31:00,
2013-05-06 02:36:00,53.4,51.1,29.99,North,0,0.0,0.0,92,0.00,,,0.00,WUHU21623XXSP,2013-05-06 07:36:00,
2013-05-06 02:41:00,53.4,51.1,29.99,North,0,0.0,0.0,92,0.00,,,0.00,WUHU21623XXSP,2013-05-06 07:41:00,
2013-05-06 02:46:00,53.4,51.1,29.99,North,0,0.0,0.0,92,0.00,,,0.00,WUHU21623XXSP,2013-05-06 07:46:00,
2013-05-06 02:51:00,53.4,51.1,29.99,North,0,0.0,0.0,92,0.00,,,0.00,WUHU21623XXSP,2013-05-06 07:51:00,
2013-05-06 02:56:00,53.4,51.1,29.99,North,0,0.0,0.0,92,0.00,,,0.00,WUHU21623XXSP,2013-05-06 07:56:00,
2013-05-06 03:01:00,53.8,51.5,29.99,North,0,0.0,0.0,92,0.00,,,0.00,WUHU21623XXSP,2013-05-06 08:01:00,
2013-05-06 03:06:00,53.8,51.5,29.99,North,0,0.0,0.0,92,0.00,,,0.00,WUHU21623XXSP,2013-05-06 08:06:00,
2013-05-06 03:11:00,53.8,51.5,29.99,North,0,0.0,0.0,92,0.00,,,0.00,WUHU21623XXSP,2013-05-06 08:11:00,
2013-05-06 03:16:00,53.8,51.5,29.99,North,0,0.0,0.0,92,0.00,,,0.00,WUHU21623XXSP,2013-05-06 08:16:00,
2013-05-06 03:21:00,53.8,51.5,29.99,North,0,0.0,0.0,92,0.00,,,0.00,WUHU21623XXSP,2013-05-06 08:21:00,
2013-05-06 03:26:00,53.8,51.5,29.98,North,0,0.0,0.0,92,0.00,,,0.00,WUHU21623XXSP,2013-05-06 08:26:00,
2013-05-06 03:31:00,53.8,51.5,29.98,North,0,0.0,0.0,92,0.00,,,0.00,WUHU21623XXSP,2013-05-06 08:31:00,
2013-05-06 03:36:00,53.8,51.5,29.98,North,0,0.0,0.0,92,0.00,,,0.00,WUHU21623XXSP,2013-05-06 08:36:00,
2013-05-06 04:01:00,54.1,51.8,29.99,North,0,0.0,0.0,92,0.00,,,0.00,WUHU21623XXSP,2013-05-06 09:01:00,
2013-05-06 04:06:00,54.3,52.0,29.99,North,0,0.0,0.0,92,0.00,,,0.00,WUHU21623XXSP,2013-05-06 09:06:00,
2013-05-06 04:11:00,54.3,52.0,29.99,North,0,0.0,0.0,92,0.00,,,0.00,WUHU21623XXSP,2013-05-06 09:11:00,
2013-05-06 04:16:00,54.1,51.8,29.99,North,0,0.0,0.0,92,0.00,,,0.00,WUHU21623XXSP,2013-05-06 09:16:00,
2013-05-06 04:21:00,54.1,51.8,30.00,North,0,0.0,0.0,92,0.00,,,0.00,WUHU21623XXSP,2013-05-06 09:21:00,
2013-05-06 04:26:00,54.0,51.7,29.99,North,0,0.0,0.0,92,0.00,,,0.00,WUHU21623XXSP,2013-05-06 09:26:00,
2013-05-06 04:31:00,53.8,51.5,30.00,North,0,0.0,0.0,92,0.00,,,0.00,WUHU21623XXSP,2013-05-06 09:31:00,
2013-05-06 04:36:00,53.8,51.5,30.00,North,0,0.0,0.0,92,0.00,,,0.00,WUHU21623XXSP,2013-05-06 09:36:00,
2013-05-06 04:41:00,53.8,51.5,30.00,North,0,0.0,0.0,92,0.00,,,0.00,WUHU21623XXSP,2013-05-06 09:41:00,
2013-05-06 04:46:00,53.4,51.1,30.00,North,0,0.0,0.0,92,0.00,,,0.00,WUHU21623XXSP,2013-05-06 09:46:00,
2013-05-06 04:51:00,53.4,51.1,30.00,North,0,0.0,0.0,92,0.00,,,0.00,WUHU21623XXSP,2013-05-06 09:51:00,
2013-05-06 04:56:00,53.4,51.1,30.00,North,0,0.0,0.0,92,0.00,,,0.00,WUHU21623XXSP,2013-05-06 09:56:00,
2013-05-06 05:01:00,53.2,51.1,30.00,North,0,0.0,0.0,92,0.00,,,0.00,WUHU21623XXSP,2013-05-06 10:01:00,
2013-05-06 05:06:00,53.2,50.9,30.00,North,0,0.0,0.0,92,0.00,,,0.00,WUHU21623XXSP,2013-05-06 10:06:00,
2013-05-06 05:11:00,53.2,50.9,30.00,North,0,0.0,0.0,92,0.00,,,0.00,WUHU21623XXSP,2013-05-06 10:11:00,
2013-05-06 05:16:00,53.1,50.8,30.00,North,0,0.0,0.0,92,0.00,,,0.00,WUHU21623XXSP,2013-05-06 10:16:00,
2013-05-06 05:21:00,52.9,50.6,30.00,North,0,0.0,0.0,92,0.00,,,0.00,WUHU21623XXSP,2013-05-06 10:21:00,
2013-05-06 05:26:00,52.9,50.6,30.00,North,0,0.0,0.0,92,0.00,,,0.00,WUHU21623XXSP,2013-05-06 10:26:00,
2013-05-06 05:31:00,52.7,50.7,30.00,North,0,0.0,0.0,93,0.00,,,0.00,WUHU21623XXSP,2013-05-06 10:31:00,
2013-05-06 05:36:00,52.7,50.7,30.00,North,0,0.0,0.0,93,0.00,,,0.00,WUHU21623XXSP,2013-05-06 10:36:00,
2013-05-06 05:41:00,52.5,50.5,30.00,North,0,0.0,0.0,93,0.00,,,0.00,WUHU21623XXSP,2013-05-06 10:41:00,
2013-05-06 05:46:00,52.7,50.7,30.00,North,0,0.0,0.0,93,0.00,,,0.00,WUHU21623XXSP,2013-05-06 10:46:00,
2013-05-06 05:51:00,52.7,50.7,30.01,North,0,0.0,0.0,93,0.00,,,0.00,WUHU21623XXSP,2013-05-06 10:51:00,
2013-05-06 05:56:00,52.7,50.7,30.01,North,0,0.0,0.0,93,0.00,,,0.00,WUHU21623XXSP,2013-05-06 10:56:00,
2013-05-06 06:01:00,52.5,50.5,30.01,North,0,0.0,0.0,93,0.00,,,0.00,WUHU21623XXSP,2013-05-06 11:01:00,
2013-05-06 06:06:00,52.5,50.5,30.01,North,0,0.0,0.0,93,0.00,,,0.00,WUHU21623XXSP,2013-05-06 11:06:00,
2013-05-06 06:11:00,52.5,50.5,30.01,North,0,0.0,0.0,93,0.00,,,0.00,WUHU21623XXSP,2013-05-06 11:11:00,
2013-05-06 06:16:00,52.3,50.3,30.02,North,0,0.0,0.0,93,0.00,,,0.00,WUHU21623XXSP,2013-05-06 11:16:00,
2013-05-06 06:21:00,52.3,50.3,30.02,North,0,0.0,0.0,93,0.00,,,0.00,WUHU21623XXSP,2013-05-06 11:21:00,
2013-05-06 06:26:00,52.3,50.3,30.02,North,0,0.0,0.0,93,0.00,,,0.00,WUHU21623XXSP,2013-05-06 11:26:00,
2013-05-06 06:31:00,52.3,50.3,30.03,North,0,0.0,0.0,93,0.00,,,0.00,WUHU21623XXSP,2013-05-06 11:31:00,
2013-05-06 06:36:00,52.3,50.3,30.03,North,0,0.0,0.0,93,0.00,,,0.00,WUHU21623XXSP,2013-05-06 11:36:00,
2013-05-06 06:41:00,52.3,50.3,30.03,North,0,0.0,0.0,93,0.00,,,0.00,WUHU21623XXSP,2013-05-06 11:41:00,
2013-05-06 06:46:00,52.5,50.5,30.03,North,0,0.0,0.0,93,0.00,,,0.00,WUHU21623XXSP,2013-05-06 11:46:00,
2013-05-06 06:51:00,52.9,50.7,30.03,North,0,0.0,0.0,93,0.00,,,0.00,WUHU21623XXSP,2013-05-06 11:51:00,
2013-05-06 06:56:00,53.4,51.4,30.03,North,0,0.0,0.0,93,0.00,,,0.00,WUHU21623XXSP,2013-05-06 11:56:00,
2013-05-06 07:01:00,55.2,52.5,30.03,North,0,0.0,0.0,93,0.00,,,0.00,WUHU21623XXSP,2013-05-06 12:01:00,
2013-05-06 07:06:00,57.0,55.3,30.03,North,0,0.0,0.0,94,0.00,,,0.00,WUHU21623XXSP,2013-05-06 12:06:00,
2013-05-06 07:11:00,58.8,57.1,30.03,North,0,0.0,0.0,94,0.00,,,0.00,WUHU21623XXSP,2013-05-06 12:11:00,
2013-05-06 07:16:00,60.1,58.4,30.03,North,0,0.0,0.0,94,0.00,,,0.00,WUHU21623XXSP,2013-05-06 12:16:00,
2013-05-06 07:21:00,61.0,59.3,30.04,North,0,0.0,0.0,94,0.00,,,0.00,WUHU21623XXSP,2013-05-06 12:21:00,
2013-05-06 07:26:00,61.5,59.8,30.05,North,0,0.0,0.0,94,0.00,,,0.00,WUHU21623XXSP,2013-05-06 12:26:00,
2013-05-06 07:31:00,60.6,59.3,30.05,North,0,0.0,0.0,93,0.00,,,0.00,WUHU21623XXSP,2013-05-06 12:31:00,
2013-05-06 07:36:00,59.5,57.2,30.04,North,0,0.0,0.0,92,0.00,,,0.00,WUHU21623XXSP,2013-05-06 12:36:00,
2013-05-06 07:41:00,58.8,56.5,30.04,North,0,0.0,0.0,92,0.00,,,0.00,WUHU21623XXSP,2013-05-06 12:41:00,
2013-05-06 07:46:00,57.7,55.3,30.05,North,0,0.0,0.0,91,0.00,,,0.00,WUHU21623XXSP,2013-05-06 12:46:00,
2013-05-06 07:51:00,57.4,54.8,30.05,North,0,0.0,0.0,91,0.00,,,0.00,WUHU21623XXSP,2013-05-06 12:51:00,
2013-05-06 07:56:00,57.4,54.5,30.05,North,0,0.0,0.0,90,0.00,,,0.00,WUHU21623XXSP,2013-05-06 12:56:00,
2013-05-06 08:01:00,57.7,54.9,30.05,North,0,0.0,0.0,90,0.00,,,0.00,WUHU21623XXSP,2013-05-06 13:01:00,
2013-05-06 08:06:00,57.9,55.0,30.05,North,0,0.0,0.0,90,0.00,,,0.00,WUHU21623XXSP,2013-05-06 13:06:00,
2013-05-06 08:11:00,58.1,55.2,30.05,North,0,0.0,0.0,90,0.00,,,0.00,WUHU21623XXSP,2013-05-06 13:11:00,
2013-05-06 08:16:00,58.8,56.2,30.05,North,0,0.0,0.0,91,0.00,,,0.00,WUHU21623XXSP,2013-05-06 13:16:00,
2013-05-06 08:21:00,61.0,58.1,30.06,North,0,0.0,0.0,90,0.00,,,0.00,WUHU21623XXSP,2013-05-06 13:21:00,
2013-05-06 08:26:00,61.5,58.1,30.06,North,0,0.0,0.0,88,0.00,,,0.00,WUHU21623XXSP,2013-05-06 13:26:00,
2013-05-06 08:31:00,61.3,56.8,30.06,North,0,0.0,0.0,85,0.00,,,0.00,WUHU21623XXSP,2013-05-06 13:31:00,
2013-05-06 08:36:00,61.5,57.0,30.06,North,0,0.0,0.0,85,0.00,,,0.00,WUHU21623XXSP,2013-05-06 13:36:00,
2013-05-06 08:41:00,61.9,57.0,30.06,North,0,0.0,0.0,84,0.00,,,0.00,WUHU21623XXSP,2013-05-06 13:41:00,
2013-05-06 08:46:00,61.9,56.6,30.06,North,0,0.0,0.0,83,0.00,,,0.00,WUHU21623XXSP,2013-05-06 13:46:00,
2013-05-06 08:51:00,61.7,56.5,30.05,North,0,0.0,0.0,83,0.00,,,0.00,WUHU21623XXSP,2013-05-06 13:51:00,
2013-05-06 08:56:00,61.3,56.1,30.06,North,0,0.0,0.0,83,0.00,,,0.00,WUHU21623XXSP,2013-05-06 13:56:00,
2013-05-06 09:01:00,61.3,56.1,30.06,North,0,0.0,0.0,83,0.00,,,0.00,WUHU21623XXSP,2013-05-06 14:01:00,
2013-05-06 09:06:00,61.5,56.3,30.06,North,0,0.0,0.0,83,0.00,,,0.00,WUHU21623XXSP,2013-05-06 14:06:00,
2013-05-06 09:11:00,61.5,56.3,30.06,North,0,0.0,0.0,83,0.00,,,0.00,WUHU21623XXSP,2013-05-06 14:11:00,
2013-05-06 09:16:00,61.7,56.5,30.06,North,0,0.0,0.0,83,0.00,,,0.00,WUHU21623XXSP,2013-05-06 14:16:00,
2013-05-06 09:21:00,61.7,56.2,30.06,North,0,0.0,0.0,82,0.00,,,0.00,WUHU21623XXSP,2013-05-06 14:21:00,
2013-05-06 09:26:00,62.6,57.1,30.06,North,0,0.0,0.0,83,0.00,,,0.00,WUHU21623XXSP,2013-05-06 14:26:00,
2013-05-06 09:31:00,63.3,57.5,30.06,North,0,0.0,0.0,82,0.00,,,0.00,WUHU21623XXSP,2013-05-06 14:31:00,
2013-05-06 09:36:00,63.5,56.8,30.06,North,0,0.0,0.0,79,0.00,,,0.00,WUHU21623XXSP,2013-05-06 14:36:00,
2013-05-06 09:41:00,63.7,56.7,30.05,North,0,0.0,0.0,78,0.00,,,0.00,WUHU21623XXSP,2013-05-06 14:41:00,
2013-05-06 09:46:00,63.3,56.3,30.06,North,0,0.0,0.0,78,0.00,,,0.00,WUHU21623XXSP,2013-05-06 14:46:00,
2013-05-06 09:51:00,63.1,56.1,30.05,North,0,0.0,0.0,78,0.00,,,0.00,WUHU21623XXSP,2013-05-06 14:51:00,
2013-05-06 09:57:00,63.3,56.3,30.06,North,0,0.0,0.0,78,0.00,,,0.00,WUHU21623XXSP,2013-05-06 14:57:00,
2013-05-06 10:02:00,63.5,56.1,30.05,North,0,0.0,0.0,77,0.00,,,0.00,WUHU21623XXSP,2013-05-06 15:02:00,
2013-05-06 10:07:00,64.2,56.8,30.06,North,0,0.0,0.0,77,0.00,,,0.00,WUHU21623XXSP,2013-05-06 15:07:00,
2013-05-06 10:12:00,64.9,56.8,30.05,North,0,0.0,0.0,75,0.00,,,0.00,WUHU21623XXSP,2013-05-06 15:12:00,
2013-05-06 10:17:00,65.1,56.2,30.05,North,0,0.0,0.0,73,0.00,,,0.00,WUHU21623XXSP,2013-05-06 15:17:00,
2013-05-06 10:22:00,65.1,56.2,30.06,North,0,0.0,0.0,73,0.00,,,0.00,WUHU21623XXSP,2013-05-06 15:22:00,
2013-05-06 10:27:00,65.7,56.4,30.06,North,0,0.0,0.0,72,0.00,,,0.00,WUHU21623XXSP,2013-05-06 15:27:00,
2013-05-06 10:32:00,65.8,56.2,30.05,North,0,0.0,0.0,71,0.00,,,0.00,WUHU21623XXSP,2013-05-06 15:32:00,
2013-05-06 10:37:00,65.8,55.8,30.05,North,0,0.0,0.0,70,0.00,,,0.00,WUHU21623XXSP,2013-05-06 15:37:00,
2013-05-06 10:42:00,65.8,56.2,30.05,North,0,0.0,0.0,71,0.00,,,0.00,WUHU21623XXSP,2013-05-06 15:42:00,
2013-05-06 10:47:00,66.0,56.3,30.05,North,0,0.0,0.0,71,0.00,,,0.00,WUHU21623XXSP,2013-05-06 15:47:00,
2013-05-06 10:52:00,66.4,55.9,30.05,North,0,0.0,0.0,69,0.00,,,0.00,WUHU21623XXSP,2013-05-06 15:52:00,
2013-05-06 10:57:00,66.9,56.8,30.05,North,0,0.0,0.0,70,0.00,,,0.00,WUHU21623XXSP,2013-05-06 15:57:00,
2013-05-06 11:02:00,67.1,56.2,30.05,North,0,0.0,0.0,68,0.00,,,0.00,WUHU21623XXSP,2013-05-06 16:02:00,
2013-05-06 11:07:00,67.6,56.7,30.05,North,0,0.0,0.0,68,0.00,,,0.00,WUHU21623XXSP,2013-05-06 16:07:00,
2013-05-06 11:12:00,67.8,57.3,30.05,North,0,0.0,0.0,69,0.00,,,0.00,WUHU21623XXSP,2013-05-06 16:12:00,
2013-05-06 11:17:00,68.2,56.8,30.05,North,0,0.0,0.0,67,0.00,,,0.00,WUHU21623XXSP,2013-05-06 16:17:00,
2013-05-06 11:22:00,68.5,57.1,30.05,North,0,0.0,0.0,67,0.00,,,0.00,WUHU21623XXSP,2013-05-06 16:22:00,
2013-05-06 11:27:00,68.5,56.9,30.04,North,0,0.0,0.0,67,0.00,,,0.00,WUHU21623XXSP,2013-05-06 16:27:00,
2013-05-06 11:32:00,68.7,57.7,30.04,North,0,0.0,0.0,68,0.00,,,0.00,WUHU21623XXSP,2013-05-06 16:32:00,
2013-05-06 11:37:00,68.9,56.6,30.04,North,0,0.0,0.0,65,0.00,,,0.00,WUHU21623XXSP,2013-05-06 16:37:00,
2013-05-06 11:42:00,69.3,57.2,30.04,North,0,0.0,0.0,66,0.00,,,0.00,WUHU21623XXSP,2013-05-06 16:42:00,
2013-05-06 11:47:00,69.6,56.7,30.05,North,0,0.0,0.0,63,0.00,,,0.00,WUHU21623XXSP,2013-05-06 16:47:00,
2013-05-06 11:52:00,69.6,56.5,30.05,North,0,0.0,0.0,63,0.00,,,0.00,WUHU21623XXSP,2013-05-06 16:52:00,
2013-05-06 11:57:00,69.6,56.5,30.04,North,0,0.0,0.0,63,0.00,,,0.00,WUHU21623XXSP,2013-05-06 16:57:00,
2013-05-06 12:02:00,70.0,56.6,30.04,North,0,0.0,0.0,62,0.00,,,0.00,WUHU21623XXSP,2013-05-06 17:02:00,
2013-05-06 12:07:00,70.2,56.1,30.03,North,0,0.0,0.0,61,0.00,,,0.00,WUHU21623XXSP,2013-05-06 17:07:00,
2013-05-06 12:12:00,70.3,56.7,30.03,North,0,0.0,0.0,62,0.00,,,0.00,WUHU21623XXSP,2013-05-06 17:12:00,
2013-05-06 12:17:00,70.3,56.3,30.03,North,0,0.0,0.0,61,0.00,,,0.00,WUHU21623XXSP,2013-05-06 17:17:00,
2013-05-06 12:22:00,70.5,56.9,30.03,North,0,0.0,0.0,62,0.00,,,0.00,WUHU21623XXSP,2013-05-06 17:22:00,
2013-05-06 12:27:00,70.9,56.8,30.04,North,0,0.0,0.0,59,0.00,,,0.00,WUHU21623XXSP,2013-05-06 17:27:00,
2013-05-06 12:32:00,70.7,55.7,30.03,North,0,0.0,0.0,59,0.00,,,0.00,WUHU21623XXSP,2013-05-06 17:32:00,
2013-05-06 12:37:00,70.9,55.7,30.03,North,0,0.0,0.0,60,0.00,,,0.00,WUHU21623XXSP,2013-05-06 17:37:00,
2013-05-06 12:42:00,71.1,56.0,30.03,North,0,0.0,0.0,59,0.00,,,0.00,WUHU21623XXSP,2013-05-06 17:42:00,
2013-05-06 12:47:00,71.1,55.5,30.03,North,0,0.0,0.0,58,0.00,,,0.00,WUHU21623XXSP,2013-05-06 17:47:00,
2013-05-06 12:52:00,71.2,55.7,30.03,North,0,0.0,0.0,57,0.00,,,0.00,WUHU21623XXSP,2013-05-06 17:52:00,
2013-05-06 12:57:00,71.4,55.3,30.02,North,0,0.0,0.0,57,0.00,,,0.00,WUHU21623XXSP,2013-05-06 17:57:00,
2013-05-06 13:02:00,71.6,55.3,30.02,North,0,0.0,0.0,56,0.00,,,0.00,WUHU21623XXSP,2013-05-06 18:02:00,
2013-05-06 13:07:00,71.4,54.8,30.02,North,0,0.0,0.0,56,0.00,,,0.00,WUHU21623XXSP,2013-05-06 18:07:00,
2013-05-06 13:12:00,71.6,55.0,30.02,North,0,0.0,0.0,56,0.00,,,0.00,WUHU21623XXSP,2013-05-06 18:12:00,
2013-05-06 13:17:00,71.6,55.0,30.02,North,0,0.0,0.0,56,0.00,,,0.00,WUHU21623XXSP,2013-05-06 18:17:00,
2013-05-06 13:22:00,71.6,55.0,30.02,North,0,0.0,0.0,56,0.00,,,0.00,WUHU21623XXSP,2013-05-06 18:22:00,
2013-05-06 13:27:00,70.9,54.9,30.02,North,0,0.0,0.0,57,0.00,,,0.00,WUHU21623XXSP,2013-05-06 18:27:00,
2013-05-06 13:32:00,71.4,54.8,30.02,North,0,0.0,0.0,56,0.00,,,0.00,WUHU21623XXSP,2013-05-06 18:32:00,
2013-05-06 13:37:00,72.0,54.3,30.02,North,0,0.0,0.0,54,0.00,,,0.00,WUHU21623XXSP,2013-05-06 18:37:00,
2013-05-06 13:42:00,72.1,54.3,30.02,North,0,0.0,0.0,54,0.00,,,0.00,WUHU21623XXSP,2013-05-06 18:42:00,
2013-05-06 13:47:00,72.3,54.5,30.02,North,0,0.0,0.0,54,0.00,,,0.00,WUHU21623XXSP,2013-05-06 18:47:00,
2013-05-06 13:52:00,72.3,54.6,30.02,North,0,0.0,0.0,54,0.00,,,0.00,WUHU21623XXSP,2013-05-06 18:52:00,
2013-05-06 13:57:00,72.3,54.6,30.02,North,0,0.0,0.0,54,0.00,,,0.00,WUHU21623XXSP,2013-05-06 18:57:00,
2013-05-06 14:02:00,73.2,54.4,30.02,North,0,0.0,0.0,52,0.00,,,0.00,WUHU21623XXSP,2013-05-06 19:02:00,
2013-05-06 14:07:00,73.4,54.1,30.02,North,0,0.0,0.0,51,0.00,,,0.00,WUHU21623XXSP,2013-05-06 19:07:00,
2013-05-06 14:12:00,73.4,54.1,30.02,North,0,0.0,0.0,51,0.00,,,0.00,WUHU21623XXSP,2013-05-06 19:12:00,
2013-05-06 14:17:00,73.4,54.1,30.02,North,0,0.0,0.0,51,0.00,,,0.00,WUHU21623XXSP,2013-05-06 19:17:00,
2013-05-06 14:22:00,73.2,53.4,30.02,North,0,0.0,0.0,50,0.00,,,0.00,WUHU21623XXSP,2013-05-06 19:22:00,
2013-05-06 14:27:00,73.2,53.9,30.02,North,0,0.0,0.0,50,0.00,,,0.00,WUHU21623XXSP,2013-05-06 19:27:00,
2013-05-06 14:32:00,73.2,54.4,30.02,North,0,0.0,0.0,52,0.00,,,0.00,WUHU21623XXSP,2013-05-06 19:32:00,
2013-05-06 14:37:00,73.8,54.5,30.02,North,0,0.0,0.0,51,0.00,,,0.00,WUHU21623XXSP,2013-05-06 19:37:00,
2013-05-06 14:42:00,74.1,54.3,30.02,North,0,0.0,0.0,50,0.00,,,0.00,WUHU21623XXSP,2013-05-06 19:42:00,
2013-05-06 14:47:00,74.5,54.7,30.02,North,0,0.0,0.0,50,0.00,,,0.00,WUHU21623XXSP,2013-05-06 19:47:00,
2013-05-06 14:52:00,73.9,54.6,30.01,North,0,0.0,0.0,51,0.00,,,0.00,WUHU21623XXSP,2013-05-06 19:52:00,
2013-05-06 14:57:00,73.2,53.9,30.01,North,0,0.0,0.0,51,0.00,,,0.00,WUHU21623XXSP,2013-05-06 19:57:00,
2013-05-06 15:02:00,73.6,53.2,30.01,North,0,0.0,0.0,49,0.00,,,0.00,WUHU21623XXSP,2013-05-06 20:02:00,
2013-05-06 15:07:00,73.9,52.9,30.01,North,0,0.0,0.0,48,0.00,,,0.00,WUHU21623XXSP,2013-05-06 20:07:00,
2013-05-06 15:12:00,74.1,53.7,30.01,North,0,0.0,0.0,49,0.00,,,0.00,WUHU21623XXSP,2013-05-06 20:12:00,
2013-05-06 15:17:00,74.5,54.1,30.01,North,0,0.0,0.0,49,0.00,,,0.00,WUHU21623XXSP,2013-05-06 20:17:00,
2013-05-06 15:22:00,73.8,53.3,30.00,North,0,0.0,0.0,49,0.00,,,0.00,WUHU21623XXSP,2013-05-06 20:22:00,
2013-05-06 15:27:00,73.2,52.3,30.00,North,0,0.0,0.0,48,0.00,,,0.00,WUHU21623XXSP,2013-05-06 20:27:00,
2013-05-06 15:32:00,73.0,52.1,30.00,North,0,0.0,0.0,48,0.00,,,0.00,WUHU21623XXSP,2013-05-06 20:32:00,
2013-05-06 15:37:00,72.7,51.8,30.00,North,0,0.0,0.0,48,0.00,,,0.00,WUHU21623XXSP,2013-05-06 20:37:00,
2013-05-06 15:42:00,73.0,52.4,30.00,North,0,0.0,0.0,49,0.00,,,0.00,WUHU21623XXSP,2013-05-06 20:42:00,
2013-05-06 15:47:00,73.2,53.9,30.00,North,0,0.0,0.0,51,0.00,,,0.00,WUHU21623XXSP,2013-05-06 20:47:00,
2013-05-06 15:52:00,72.7,53.5,30.00,North,0,0.0,0.0,51,0.00,,,0.00,WUHU21623XXSP,2013-05-06 20:52:00,
2013-05-06 15:57:00,72.3,52.6,30.00,North,0,0.0,0.0,50,0.00,,,0.00,WUHU21623XXSP,2013-05-06 20:57:00,
2013-05-06 16:02:00,71.8,52.6,30.00,North,0,0.0,0.0,51,0.00,,,0.00,WUHU21623XXSP,2013-05-06 21:02:00,
2013-05-06 16:07:00,71.2,52.7,29.99,North,0,0.0,0.0,52,0.00,,,0.00,WUHU21623XXSP,2013-05-06 21:07:00,
2013-05-06 16:12:00,71.2,53.2,29.99,North,0,0.0,0.0,53,0.00,,,0.00,WUHU21623XXSP,2013-05-06 21:12:00,
2013-05-06 16:17:00,70.9,52.8,29.99,North,0,0.0,0.0,53,0.00,,,0.00,WUHU21623XXSP,2013-05-06 21:17:00,
2013-05-06 16:22:00,70.9,52.8,29.99,North,0,0.0,0.0,53,0.00,,,0.00,WUHU21623XXSP,2013-05-06 21:22:00,
2013-05-06 16:27:00,71.2,53.2,30.00,North,0,0.0,0.0,54,0.00,,,0.00,WUHU21623XXSP,2013-05-06 21:27:00,
2013-05-06 16:32:00,71.4,53.8,29.99,North,0,0.0,0.0,54,0.00,,,0.00,WUHU21623XXSP,2013-05-06 21:32:00,
2013-05-06 16:37:00,71.8,54.2,29.99,North,0,0.0,0.0,54,0.00,,,0.00,WUHU21623XXSP,2013-05-06 21:37:00,
2013-05-06 16:42:00,71.8,53.7,29.99,North,0,0.0,0.0,54,0.00,,,0.00,WUHU21623XXSP,2013-05-06 21:42:00,
2013-05-06 16:47:00,71.8,54.2,29.99,North,0,0.0,0.0,54,0.00,,,0.00,WUHU21623XXSP,2013-05-06 21:47:00,
2013-05-06 16:52:00,71.4,53.3,29.99,North,0,0.0,0.0,53,0.00,,,0.00,WUHU21623XXSP,2013-05-06 21:52:00,
2013-05-06 16:57:00,71.4,53.3,29.99,North,0,0.0,0.0,53,0.00,,,0.00,WUHU21623XXSP,2013-05-06 21:57:00,
2013-05-06 17:02:00,71.2,53.2,29.99,North,0,0.0,0.0,53,0.00,,,0.00,WUHU21623XXSP,2013-05-06 22:02:00,
2013-05-06 17:07:00,70.7,53.2,30.00,North,0,0.0,0.0,54,0.00,,,0.00,WUHU21623XXSP,2013-05-06 22:07:00,
2013-05-06 17:12:00,70.3,53.4,30.00,North,0,0.0,0.0,55,0.00,,,0.00,WUHU21623XXSP,2013-05-06 22:12:00,
2013-05-06 17:17:00,70.2,53.4,30.00,North,0,0.0,0.0,56,0.00,,,0.00,WUHU21623XXSP,2013-05-06 22:17:00,
2013-05-06 17:22:00,70.2,53.7,30.00,North,0,0.0,0.0,57,0.00,,,0.00,WUHU21623XXSP,2013-05-06 22:22:00,
2013-05-06 17:27:00,69.8,53.9,30.00,North,0,0.0,0.0,57,0.00,,,0.00,WUHU21623XXSP,2013-05-06 22:27:00,
2013-05-06 17:32:00,69.8,54.4,30.00,North,0,0.0,0.0,58,0.00,,,0.00,WUHU21623XXSP,2013-05-06 22:32:00,
2013-05-06 17:37:00,69.6,54.2,30.00,North,0,0.0,0.0,58,0.00,,,0.00,WUHU21623XXSP,2013-05-06 22:37:00,
2013-05-06 17:42:00,69.6,54.2,30.00,North,0,0.0,0.0,58,0.00,,,0.00,WUHU21623XXSP,2013-05-06 22:42:00,
2013-05-06 17:47:00,69.6,54.2,30.00,North,0,0.0,0.0,58,0.00,,,0.00,WUHU21623XXSP,2013-05-06 22:47:00,
2013-05-06 17:52:00,69.6,54.2,30.00,North,0,0.0,0.0,58,0.00,,,0.00,WUHU21623XXSP,2013-05-06 22:52:00,
2013-05-06 17:57:00,69.6,53.7,30.00,North,0,0.0,0.0,57,0.00,,,0.00,WUHU21623XXSP,2013-05-06 22:57:00,
2013-05-06 18:02:00,69.6,53.7,30.00,North,0,0.0,0.0,57,0.00,,,0.00,WUHU21623XXSP,2013-05-06 23:02:00,
2013-05-06 18:07:00,69.6,53.7,30.00,North,0,0.0,0.0,57,0.00,,,0.00,WUHU21623XXSP,2013-05-06 23:07:00,
2013-05-06 18:12:00,69.6,53.2,30.00,North,0,0.0,0.0,56,0.00,,,0.00,WUHU21623XXSP,2013-05-06 23:12:00,
2013-05-06 18:17:00,69.4,53.5,30.00,North,0,0.0,0.0,57,0.00,,,0.00,WUHU21623XXSP,2013-05-06 23:17:00,
2013-05-06 18:22:00,69.4,54.0,30.00,North,0,0.0,0.0,58,0.00,,,0.00,WUHU21623XXSP,2013-05-06 23:22:00,
2013-05-06 18:27:00,69.4,53.5,30.00,North,0,0.0,0.0,57,0.00,,,0.00,WUHU21623XXSP,2013-05-06 23:27:00,
2013-05-06 18:32:00,69.3,53.9,30.00,North,0,0.0,0.0,58,0.00,,,0.00,WUHU21623XXSP,2013-05-06 23:32:00,
2013-05-06 18:37:00,69.1,53.7,30.00,North,0,0.0,0.0,58,0.00,,,0.00,WUHU21623XXSP,2013-05-06 23:37:00,
2013-05-06 18:42:00,69.1,53.7,30.00,North,0,0.0,0.0,58,0.00,,,0.00,WUHU21623XXSP,2013-05-06 23:42:00,
2013-05-06 18:47:00,68.9,54.0,30.00,North,0,0.0,0.0,59,0.00,,,0.00,WUHU21623XXSP,2013-05-06 23:47:00,
2013-05-06 18:52:00,68.7,53.8,30.00,North,0,0.0,0.0,59,0.00,,,0.00,WUHU21623XXSP,2013-05-06 23:52:00,
2013-05-06 18:57:00,68.7,53.8,30.00,North,0,0.0,0.0,60,0.00,,,0.00,WUHU21623XXSP,2013-05-06 23:57:00,
2013-05-06 19:02:00,68.5,54.1,30.00,North,0,0.0,0.0,60,0.00,,,0.00,WUHU21623XXSP,2013-05-07 00:02:00,
2013-05-06 19:07:00,68.2,54.2,30.00,North,0,0.0,0.0,61,0.00,,,0.00,WUHU21623XXSP,2013-05-07 00:07:00,
2013-05-06 19:12:00,68.2,54.2,30.00,North,0,0.0,0.0,61,0.00,,,0.00,WUHU21623XXSP,2013-05-07 00:12:00,
2013-05-06 19:17:00,67.8,54.3,29.99,North,0,0.0,0.0,62,0.00,,,0.00,WUHU21623XXSP,2013-05-07 00:17:00,
2013-05-06 19:22:00,67.8,54.3,30.00,North,0,0.0,0.0,62,0.00,,,0.00,WUHU21623XXSP,2013-05-07 00:22:00,
2013-05-06 19:27:00,67.6,54.1,30.00,North,0,0.0,0.0,62,0.00,,,0.00,WUHU21623XXSP,2013-05-07 00:27:00,
2013-05-06 19:32:00,67.3,53.8,30.00,North,0,0.0,0.0,62,0.00,,,0.00,WUHU21623XXSP,2013-05-07 00:32:00,
2013-05-06 19:37:00,67.3,54.2,30.00,North,0,0.0,0.0,63,0.00,,,0.00,WUHU21623XXSP,2013-05-07 00:37:00,
2013-05-06 19:42:00,66.9,53.9,30.00,North,0,0.0,0.0,63,0.00,,,0.00,WUHU21623XXSP,2013-05-07 00:42:00,
2013-05-06 19:48:00,66.7,54.1,30.00,North,0,0.0,0.0,64,0.00,,,0.00,WUHU21623XXSP,2013-05-07 00:48:00,
2013-05-06 19:53:00,66.6,54.1,30.00,North,0,0.0,0.0,64,0.00,,,0.00,WUHU21623XXSP,2013-05-07 00:53:00,
2013-05-06 19:58:00,66.4,53.8,30.00,North,0,0.0,0.0,64,0.00,,,0.00,WUHU21623XXSP,2013-05-07 00:58:00,
2013-05-06 20:03:00,66.2,54.0,30.00,North,0,0.0,0.0,65,0.00,,,0.00,WUHU21623XXSP,2013-05-07 01:03:00,
2013-05-06 20:08:00,66.0,53.9,30.00,North,0,0.0,0.0,65,0.00,,,0.00,WUHU21623XXSP,2013-05-07 01:08:00,
2013-05-06 20:13:00,66.0,53.9,30.00,North,0,0.0,0.0,65,0.00,,,0.00,WUHU21623XXSP,2013-05-07 01:13:00,
2013-05-06 20:18:00,65.8,54.1,30.00,North,0,0.0,0.0,66,0.00,,,0.00,WUHU21623XXSP,2013-05-07 01:18:00,
2013-05-06 20:23:00,65.5,54.2,30.01,North,0,0.0,0.0,67,0.00,,,0.00,WUHU21623XXSP,2013-05-07 01:23:00,
2013-05-06 20:28:00,65.5,54.2,30.01,North,0,0.0,0.0,67,0.00,,,0.00,WUHU21623XXSP,2013-05-07 01:28:00,
2013-05-06 20:33:00,65.1,54.0,30.01,North,0,0.0,0.0,67,0.00,,,0.00,WUHU21623XXSP,2013-05-07 01:33:00,
2013-05-06 20:38:00,65.1,54.3,30.00,North,0,0.0,0.0,68,0.00,,,0.00,WUHU21623XXSP,2013-05-07 01:38:00,
2013-05-06 20:43:00,65.1,54.3,30.01,North,0,0.0,0.0,68,0.00,,,0.00,WUHU21623XXSP,2013-05-07 01:43:00,
2013-05-06 20:48:00,64.8,54.1,30.01,North,0,0.0,0.0,68,0.00,,,0.00,WUHU21623XXSP,2013-05-07 01:48:00,
2013-05-06 20:53:00,64.6,54.2,30.01,North,0,0.0,0.0,69,0.00,,,0.00,WUHU21623XXSP,2013-05-07 01:53:00,
2013-05-06 20:58:00,64.6,54.2,30.01,North,0,0.0,0.0,69,0.00,,,0.00,WUHU21623XXSP,2013-05-07 01:58:00,
2013-05-06 21:03:00,64.2,54.5,30.01,North,0,0.0,0.0,70,0.00,,,0.00,WUHU21623XXSP,2013-05-07 02:03:00,
2013-05-06 21:08:00,64.2,54.3,30.02,North,0,0.0,0.0,70,0.00,,,0.00,WUHU21623XXSP,2013-05-07 02:08:00,
2013-05-06 21:13:00,64.2,54.3,30.02,North,0,0.0,0.0,70,0.00,,,0.00,WUHU21623XXSP,2013-05-07 02:13:00,
2013-05-06 21:18:00,64.0,54.1,30.02,North,0,0.0,0.0,70,0.00,,,0.00,WUHU21623XXSP,2013-05-07 02:18:00,
2013-05-06 21:23:00,63.9,54.3,30.02,North,0,0.0,0.0,71,0.00,,,0.00,WUHU21623XXSP,2013-05-07 02:23:00,
2013-05-06 21:28:00,63.7,54.5,30.02,North,0,0.0,0.0,72,0.00,,,0.00,WUHU21623XXSP,2013-05-07 02:28:00,
2013-05-06 21:33:00,63.7,54.5,30.02,North,0,0.0,0.0,72,0.00,,,0.00,WUHU21623XXSP,2013-05-07 02:33:00,
2013-05-06 21:38:00,63.5,54.3,30.02,North,0,0.0,0.0,72,0.00,,,0.00,WUHU21623XXSP,2013-05-07 02:38:00,
2013-05-06 21:43:00,63.5,54.3,30.02,North,0,0.0,0.0,72,0.00,,,0.00,WUHU21623XXSP,2013-05-07 02:43:00,
2013-05-06 21:48:00,63.3,54.1,30.02,North,0,0.0,0.0,72,0.00,,,0.00,WUHU21623XXSP,2013-05-07 02:48:00,
2013-05-06 21:53:00,63.3,54.1,30.02,North,0,0.0,0.0,72,0.00,,,0.00,WUHU21623XXSP,2013-05-07 02:53:00,
2013-05-06 21:58:00,63.1,54.0,30.02,North,0,0.0,0.0,72,0.00,,,0.00,WUHU21623XXSP,2013-05-07 02:58:00,
2013-05-06 22:03:00,63.1,54.3,30.02,North,0,0.0,0.0,73,0.00,,,0.00,WUHU21623XXSP,2013-05-07 03:03:00,
2013-05-06 22:08:00,63.1,54.3,30.02,North,0,0.0,0.0,73,0.00,,,0.00,WUHU21623XXSP,2013-05-07 03:08:00,
2013-05-06 22:13:00,63.0,54.1,30.02,North,0,0.0,0.0,73,0.00,,,0.00,WUHU21623XXSP,2013-05-07 03:13:00,
2013-05-06 22:18:00,62.8,54.1,30.02,North,0,0.0,0.0,73,0.00,,,0.00,WUHU21623XXSP,2013-05-07 03:18:00,
2013-05-06 22:23:00,62.8,54.3,30.02,North,0,0.0,0.0,74,0.00,,,0.00,WUHU21623XXSP,2013-05-07 03:23:00,
2013-05-06 22:28:00,62.6,54.7,30.02,North,0,0.0,0.0,75,0.00,,,0.00,WUHU21623XXSP,2013-05-07 03:28:00,
2013-05-06 22:33:00,62.4,54.5,30.02,North,0,0.0,0.0,75,0.00,,,0.00,WUHU21623XXSP,2013-05-07 03:33:00,
2013-05-06 22:38:00,62.4,54.3,30.02,North,0,0.0,0.0,75,0.00,,,0.00,WUHU21623XXSP,2013-05-07 03:38:00,
2013-05-06 22:43:00,62.2,54.3,30.02,North,0,0.0,0.0,75,0.00,,,0.00,WUHU21623XXSP,2013-05-07 03:43:00,
2013-05-06 22:48:00,62.2,54.5,30.02,North,0,0.0,0.0,76,0.00,,,0.00,WUHU21623XXSP,2013-05-07 03:48:00,
2013-05-06 22:53:00,62.1,54.4,30.02,North,0,0.0,0.0,76,0.00,,,0.00,WUHU21623XXSP,2013-05-07 03:53:00,
2013-05-06 22:58:00,61.9,54.2,30.02,North,0,0.0,0.0,76,0.00,,,0.00,WUHU21623XXSP,2013-05-07 03:58:00,
2013-05-06 23:03:00,61.7,54.0,30.02,North,0,0.0,0.0,76,0.00,,,0.00,WUHU21623XXSP,2013-05-07 04:03:00,
2013-05-06 23:05:00,61.7,54.0,30.03,North,0,0.0,0.0,76,0.00,,,0.00,WUHU21623XXSP,2013-05-07 04:05:00,
2013-05-06 23:08:00,61.7,54.0,30.03,North,0,0.0,0.0,76,0.00,,,0.00,WUHU21623XXSP,2013-05-07 04:08:00,
2013-05-06 23:10:00,61.7,54.0,30.03,North,0,0.0,0.0,77,0.00,,,0.00,WUHU21623XXSP,2013-05-07 04:10:00,
2013-05-06 23:15:00,61.5,54.2,30.03,North,0,0.0,0.0,77,0.00,,,0.00,WUHU21623XXSP,2013-05-07 04:15:00,
2013-05-06 23:20:00,61.5,54.2,30.03,North,0,0.0,0.0,77,0.00,,,0.00,WUHU21623XXSP,2013-05-07 04:20:00,
2013-05-06 23:25:00,61.5,54.2,30.03,North,0,0.0,0.0,77,0.00,,,0.00,WUHU21623XXSP,2013-05-07 04:25:00,
2013-05-06 23:30:00,61.5,54.2,30.03,North,0,0.0,0.0,77,0.00,,,0.00,WUHU21623XXSP,2013-05-07 04:30:00,
2013-05-06 23:35:00,61.5,54.2,30.03,North,0,0.0,0.0,77,0.00,,,0.00,WUHU21623XXSP,2013-05-07 04:35:00,
2013-05-06 23:40:00,61.5,54.2,30.03,North,0,0.0,0.0,77,0.00,,,0.00,WUHU21623XXSP,2013-05-07 04:40:00,
2013-05-06 23:48:00,61.2,53.9,30.04,North,0,0.0,0.0,77,0.00,,,0.00,WUHU21623XXSP,2013-05-07 04:48:00,
2013-05-06 23:53:00,61.2,54.3,30.04,North,0,0.0,0.0,78,0.00,,,0.00,WUHU21623XXSP,2013-05-07 04:53:00,
2013-05-06 23:58:00,61.2,54.3,30.03,North,0,0.0,0.0,78,0.00,,,0.00,WUHU21623XXSP,2013-05-07 04:58:00,